Orbital Elements at Epoch 2459200.5 (2020-Dec-17.0) TDB
Reference: JPL 23 (heliocentric ecliptic J2000)
Element | Value | Uncertainty (1-sigma) | Units |
e | .1617996247403735 | 4.4798e-08 | |
a | 3.037563360500416 | 1.8676e-08 | au |
q | 2.546086748646341 | 1.4076e-07 | au |
i | 3.997654898680278 | 5.1328e-06 | deg |
node | 20.02805984587985 | 5.167e-05 | deg |
peri | 223.8694849583997 | 5.3427e-05 | deg |
M | 13.22597357076049 | 1.2265e-05 | deg |
tp | 2459129.458586312127 (2020-Oct-06.95858631) | 6.5843e-05 | TDB |
period | 1933.688192465037 5.29 | 1.7834e-05 4.883e-08 | d yr |
n | .1861727249526602 | 1.717e-09 | deg/d |
Q | 3.529039972354491 | 2.1698e-08 | au |
|
| | Orbit Determination Parameters
Additional Information
|